| time (UTC) | temp C | wind direction | speed KPH | gust KPH | rain 1hr cm | rain 24hr cm | rain mn cm | humidity % | barometer mb |
| 20260831195602 | 26 | 100 | 22.5 | 37.0 | 0.00 | 0.00 | 0.00 | 94 | 1016.7 |
| 20260831195230 | 26 | 98 | 19.3 | 30.6 | 0.00 | 0.00 | 0.00 | 93 | 1016.5 |
| 20260831195106 | 26 | 98 | 19.3 | 30.6 | 0.00 | 0.00 | 0.00 | 93 | 1016.5 |
| 20260831194532 | 27 | 95 | 16.1 | 33.8 | 0.00 | 0.00 | 0.00 | 92 | 1016.6 |
| 20260831194212 | 27 | 96 | 17.7 | 33.8 | 0.00 | 0.00 | 0.00 | 89 | 1016.7 |
| 20260831194033 | 27 | 96 | 17.7 | 33.8 | 0.00 | 0.00 | 0.00 | 89 | 1016.7 |
| 20260831193004 | 28 | 95 | 30.6 | 49.9 | 0.00 | 0.00 | 0.00 | 85 | 1017.0 |
| 20260831192713 | 29 | 90 | 22.5 | 49.9 | 0.00 | 0.00 | 0.00 | 83 | 1016.6 |
| 20260831192504 | 29 | 90 | 22.5 | 49.9 | 0.00 | 0.00 | 0.00 | 83 | 1016.6 |
| 20260831192128 | 32 | 76 | 6.4 | 22.5 | 0.00 | 0.00 | 0.00 | 72 | 1016.2 |
| 20260831191933 | 32 | 76 | 6.4 | 22.5 | 0.00 | 0.00 | 0.00 | 72 | 1016.2 |
| 20260831191718 | 32 | 55 | 4.8 | 11.3 | 0.00 | 0.00 | 0.00 | 71 | 1016.1 |
| 20260831191434 | 32 | 55 | 4.8 | 11.3 | 0.00 | 0.00 | 0.00 | 71 | 1016.1 |
| 20260831190131 | 33 | 32 | 3.2 | 6.4 | 0.00 | 0.00 | 0.00 | 66 | 1015.9 |
| 20260831185833 | 33 | 32 | 3.2 | 6.4 | 0.00 | 0.00 | 0.00 | 66 | 1015.9 |
| 20260831184632 | 33 | 68 | 3.2 | 11.3 | 0.00 | 0.00 | 0.00 | 70 | 1016.2 |
| 20260831184233 | 33 | 68 | 3.2 | 11.3 | 0.00 | 0.00 | 0.00 | 70 | 1016.2 |
| 20260831183844 | 32 | 45 | 3.2 | 6.4 | 0.00 | 0.00 | 0.00 | 69 | 1016.3 |
| 20260831183703 | 32 | 45 | 3.2 | 6.4 | 0.00 | 0.00 | 0.00 | 69 | 1016.3 |
| 20260831182912 | 32 | 36 | 3.2 | 4.8 | 0.00 | 0.00 | 0.00 | 69 | 1016.3 |
| 20260831182703 | 32 | 36 | 3.2 | 4.8 | 0.00 | 0.00 | 0.00 | 69 | 1016.3 |
| 20260831180819 | 33 | 87 | 1.6 | 4.8 | 0.00 | 0.00 | 0.00 | 68 | 1016.4 |
| 20260831180603 | 33 | 87 | 1.6 | 4.8 | 0.00 | 0.00 | 0.00 | 68 | 1016.4 |
| 20260831175602 | 33 | 85 | 1.6 | 11.3 | 0.00 | 0.00 | 0.00 | 67 | 1016.5 |
| 20260831175033 | 33 | 75 | 1.6 | 6.4 | 0.00 | 0.00 | 0.00 | 72 | 1016.6 |
| 20260831174507 | 32 | 81 | 1.6 | 3.2 | 0.00 | 0.00 | 0.00 | 70 | 1016.6 |
| 20260831174004 | 32 | 70 | 1.6 | 3.2 | 0.00 | 0.00 | 0.00 | 74 | 1016.8 |
| 20260831173813 | 32 | 42 | 1.6 | 4.8 | 0.00 | 0.00 | 0.00 | 71 | 1017.1 |
| 20260831173503 | 32 | 42 | 1.6 | 4.8 | 0.00 | 0.00 | 0.00 | 71 | 1017.1 |
| 20260831173415 | 32 | 40 | 3.2 | 6.4 | 0.00 | 0.00 | 0.00 | 71 | 1017.2 |
| 20260831173002 | 32 | 40 | 3.2 | 6.4 | 0.00 | 0.00 | 0.00 | 71 | 1017.2 |
| 20260831172211 | 32 | 38 | 1.6 | 4.8 | 0.00 | 0.00 | 0.00 | 71 | 1017.2 |
| 20260831171934 | 32 | 38 | 1.6 | 4.8 | 0.00 | 0.00 | 0.00 | 71 | 1017.2 |
| 20260831170833 | 32 | 271 | 1.6 | 6.4 | 0.00 | 0.00 | 0.00 | 71 | 1017.4 |
| 20260831170333 | 32 | 113 | 3.2 | 6.4 | 0.00 | 0.00 | 0.00 | 72 | 1017.4 |
| 20260831165834 | 32 | 100 | 3.2 | 6.4 | 0.00 | 0.00 | 0.00 | 72 | 1017.6 |
| 20260831164803 | 32 | 103 | 3.2 | 4.8 | 0.00 | 0.00 | 0.00 | 73 | 1017.7 |
| 20260831164644 | 32 | 100 | 3.2 | 6.4 | 0.00 | 0.00 | 0.00 | 74 | 1017.8 |
| 20260831164233 | 32 | 100 | 3.2 | 6.4 | 0.00 | 0.00 | 0.00 | 74 | 1017.8 |
| 20260831163933 | 32 | 94 | 3.2 | 6.4 | 0.00 | 0.00 | 0.00 | 77 | 1017.9 |
| 20260831163703 | 32 | 94 | 3.2 | 6.4 | 0.00 | 0.00 | 0.00 | 77 | 1017.9 |
| 20260831161846 | 32 | 82 | 1.6 | 4.8 | 0.00 | 0.00 | 0.00 | 76 | 1018.1 |
| 20260831161605 | 32 | 82 | 1.6 | 4.8 | 0.00 | 0.00 | 0.00 | 76 | 1018.1 |
| 20260831161103 | 32 | 94 | 3.2 | 6.4 | 0.00 | 0.00 | 0.00 | 75 | 1018.1 |
| 20260831160032 | 31 | 88 | 3.2 | 9.7 | 0.00 | 0.00 | 0.00 | 75 | 1018.3 |
| 20260831155534 | 31 | 88 | 3.2 | 9.7 | 0.00 | 0.00 | 0.00 | 77 | 1018.3 |
| 20260831155313 | 31 | 87 | 1.6 | 4.8 | 0.00 | 0.00 | 0.00 | 76 | 1018.4 |
| 20260831155033 | 31 | 87 | 1.6 | 4.8 | 0.00 | 0.00 | 0.00 | 76 | 1018.4 |
| 20260831154533 | 31 | 80 | 3.2 | 6.4 | 0.00 | 0.00 | 0.00 | 77 | 1018.3 |
| 20260831154240 | 31 | 73 | 3.2 | 6.4 | 0.00 | 0.00 | 0.00 | 78 | 1018.4 |
| 20260831154004 | 31 | 73 | 3.2 | 6.4 | 0.00 | 0.00 | 0.00 | 78 | 1018.4 |
| 20260831153705 | 31 | 82 | 3.2 | 6.4 | 0.00 | 0.00 | 0.00 | 80 | 1018.4 |
| 20260831153435 | 31 | 82 | 3.2 | 6.4 | 0.00 | 0.00 | 0.00 | 80 | 1018.4 |
| 20260831153214 | 31 | 81 | 3.2 | 6.4 | 0.00 | 0.00 | 0.00 | 79 | 1018.4 |
| 20260831152904 | 31 | 81 | 3.2 | 6.4 | 0.00 | 0.00 | 0.00 | 79 | 1018.4 |
| 20260831151834 | 30 | 65 | 1.6 | 6.4 | 0.00 | 0.00 | 0.00 | 81 | 1018.5 |
| 20260831151639 | 30 | 54 | 1.6 | 6.4 | 0.00 | 0.00 | 0.00 | 83 | 1018.4 |
| 20260831151333 | 30 | 54 | 1.6 | 6.4 | 0.00 | 0.00 | 0.00 | 83 | 1018.4 |
| 20260831150832 | 30 | 49 | 1.6 | 4.8 | 0.00 | 0.00 | 0.00 | 81 | 1018.4 |
| 20260831150634 | 30 | 48 | 1.6 | 3.2 | 0.00 | 0.00 | 0.00 | 83 | 1018.3 |
| 20260831150304 | 30 | 48 | 1.6 | 3.2 | 0.00 | 0.00 | 0.00 | 83 | 1018.3 |
| 20260831145733 | 30 | 32 | 3.2 | 4.8 | 0.00 | 0.00 | 0.00 | 83 | 1018.3 |
| 20260831145628 | 30 | 359 | 3.2 | 4.8 | 0.00 | 0.00 | 0.00 | 83 | 1018.3 |
| 20260831145233 | 30 | 359 | 3.2 | 4.8 | 0.00 | 0.00 | 0.00 | 83 | 1018.3 |
| 20260831144733 | 29 | 35 | 3.2 | 6.4 | 0.00 | 0.00 | 0.00 | 84 | 1018.2 |
| 20260831144233 | 29 | 96 | 3.2 | 6.4 | 0.00 | 0.00 | 0.00 | 85 | 1018.1 |
| 20260831143704 | 28 | 105 | 3.2 | 4.8 | 0.00 | 0.00 | 0.00 | 86 | 1018.1 |
| 20260831143203 | 28 | 95 | 1.6 | 4.8 | 0.00 | 0.00 | 0.00 | 87 | 1018.1 |
| 20260831142204 | 28 | 83 | 1.6 | 4.8 | 0.00 | 0.00 | 0.00 | 88 | 1018.3 |
| 20260831140602 | 27 | 69 | 1.6 | 6.4 | 0.00 | 0.00 | 0.00 | 91 | 1018.2 |
| 20260831140417 | 27 | 73 | 1.6 | 6.4 | 0.00 | 0.00 | 0.00 | 91 | 1018.2 |
| 20260831140104 | 27 | 73 | 1.6 | 6.4 | 0.00 | 0.00 | 0.00 | 91 | 1018.2 |
| 20260831135603 | 27 | 85 | 3.2 | 6.4 | 0.00 | 0.00 | 0.00 | 92 | 1018.2 |
| 20260831135319 | 27 | 96 | 3.2 | 9.7 | 0.00 | 0.00 | 0.00 | 92 | 1018.2 |
| 20260831135033 | 27 | 96 | 3.2 | 9.7 | 0.00 | 0.00 | 0.00 | 92 | 1018.2 |
| 20260831134503 | 27 | 83 | 3.2 | 9.7 | 0.00 | 0.00 | 0.00 | 93 | 1018.1 |
| 20260831134002 | 27 | 55 | 1.6 | 4.8 | 0.00 | 0.00 | 0.00 | 93 | 1018.2 |
| 20260831131047 | 26 | 38 | 1.6 | 3.2 | 0.00 | 0.00 | 0.00 | 95 | 1017.8 |
| 20260831130834 | 26 | 38 | 1.6 | 3.2 | 0.00 | 0.00 | 0.00 | 95 | 1017.8 |
| 20260831130332 | 26 | 27 | 1.6 | 3.2 | 0.00 | 0.00 | 0.00 | 96 | 1017.9 |
| 20260831130053 | 26 | 54 | 1.6 | 4.8 | 0.00 | 0.00 | 0.00 | 96 | 1017.9 |
| 20260831125803 | 26 | 54 | 1.6 | 4.8 | 0.00 | 0.00 | 0.00 | 96 | 1017.9 |
| 20260831125525 | 26 | 70 | 1.6 | 4.8 | 0.00 | 0.00 | 0.00 | 96 | 1017.8 |
| 20260831125234 | 26 | 70 | 1.6 | 4.8 | 0.00 | 0.00 | 0.00 | 96 | 1017.8 |
| 20260831124938 | 26 | 48 | 1.6 | 4.8 | 0.00 | 0.00 | 0.00 | 97 | 1017.8 |
| 20260831124734 | 26 | 48 | 1.6 | 4.8 | 0.00 | 0.00 | 0.00 | 97 | 1017.8 |
| 20260831124331 | 26 | 49 | 1.6 | 4.8 | 0.00 | 0.00 | 0.00 | 96 | 1017.8 |
| 20260831124234 | 26 | 49 | 1.6 | 4.8 | 0.00 | 0.00 | 0.00 | 96 | 1017.8 |
| 20260831123204 | 25 | 41 | 1.6 | 6.4 | 0.00 | 0.00 | 0.00 | 98 | 1017.6 |
| 20260831120741 | 25 | 39 | 1.6 | 4.8 | 0.00 | 0.00 | 0.00 | 99 | 1017.5 |
| 20260831120604 | 25 | 39 | 1.6 | 4.8 | 0.00 | 0.00 | 0.00 | 99 | 1017.5 |
| 20260831120338 | 25 | 27 | 1.6 | 4.8 | 0.00 | 0.00 | 0.00 | 100 | 1017.4 |
| 20260831120104 | 25 | 27 | 1.6 | 4.8 | 0.00 | 0.00 | 0.00 | 100 | 1017.4 |
| 20260831113720 | 25 | 34 | 1.6 | 3.2 | 0.00 | 0.00 | 0.00 | 100 | 1017.1 |
| 20260831113503 | 25 | 34 | 1.6 | 3.2 | 0.00 | 0.00 | 0.00 | 100 | 1017.1 |
| 20260831112204 | 24 | 71 | 1.6 | 3.2 | 0.00 | 0.00 | 0.00 | 100 | 1016.9 |
| 20260831111906 | 24 | 71 | 1.6 | 3.2 | 0.00 | 0.00 | 0.00 | 100 | 1016.9 |
| 20260831110625 | 24 | 0 | 0.0 | 0.0 | 0.00 | 0.00 | 0.00 | 99 | 1016.6 |
| 20260831110333 | 24 | 0 | 0.0 | 0.0 | 0.00 | 0.00 | 0.00 | 99 | 1016.6 |
| 20260831110017 | 24 | 0 | 0.0 | 0.0 | 0.00 | 0.00 | 0.00 | 99 | 1016.5 |
| 20260831105804 | 24 | 0 | 0.0 | 0.0 | 0.00 | 0.00 | 0.00 | 99 | 1016.5 |
| 20260831105234 | 24 | 0 | 0.0 | 0.0 | 0.00 | 0.00 | 0.00 | 99 | 1016.4 |
| 20260831104732 | 24 | 0 | 0.0 | 0.0 | 0.00 | 0.00 | 0.00 | 99 | 1016.2 |
| 20260831102821 | 24 | 0 | 0.0 | 0.0 | 0.00 | 0.00 | 0.00 | 99 | 1016.2 |
| 20260831102603 | 24 | 0 | 0.0 | 0.0 | 0.00 | 0.00 | 0.00 | 99 | 1016.2 |
| 20260831101504 | 24 | 98 | 0.0 | 1.6 | 0.00 | 0.00 | 0.00 | 99 | 1016.2 |
| 20260831100502 | 24 | 98 | 0.0 | 1.6 | 0.00 | 0.00 | 0.00 | 99 | 1016.2 |
| 20260831100247 | 23 | 77 | 1.6 | 3.2 | 0.00 | 0.84 | 0.00 | 100 | 1016.8 |
| 20260831094655 | 24 | 0 | 0.0 | 0.0 | 0.00 | 0.00 | 0.00 | 99 | 1016.1 |
| 20260831094433 | 24 | 0 | 0.0 | 0.0 | 0.00 | 0.00 | 0.00 | 99 | 1016.1 |
| 20260831093654 | 24 | 0 | 0.0 | 0.0 | 0.00 | 0.00 | 0.00 | 99 | 1016.1 |
| 20260831093403 | 24 | 0 | 0.0 | 0.0 | 0.00 | 0.00 | 0.00 | 99 | 1016.1 |
| 20260831093159 | 24 | 0 | 0.0 | 0.0 | 0.00 | 0.00 | 0.00 | 99 | 1016.2 |
| 20260831092904 | 24 | 0 | 0.0 | 0.0 | 0.00 | 0.00 | 0.00 | 99 | 1016.2 |
| 20260831092555 | 24 | 0 | 0.0 | 4.8 | 0.00 | 0.00 | 0.00 | 99 | 1016.1 |
| 20260831092332 | 24 | 0 | 0.0 | 4.8 | 0.00 | 0.00 | 0.00 | 99 | 1016.1 |
| 20260831091832 | 24 | 98 | 0.0 | 4.8 | 0.00 | 0.00 | 0.00 | 99 | 1016.1 |
| 20260831091218 | 24 | 102 | 3.2 | 6.4 | 0.00 | 0.00 | 0.00 | 99 | 1016.1 |
| 20260831090832 | 24 | 102 | 3.2 | 6.4 | 0.00 | 0.00 | 0.00 | 99 | 1016.1 |
| 20260831090636 | 24 | 104 | 1.6 | 6.4 | 0.00 | 0.00 | 0.00 | 99 | 1016.0 |
| 20260831090332 | 24 | 104 | 1.6 | 6.4 | 0.00 | 0.00 | 0.00 | 99 | 1016.0 |
| 20260831085311 | 24 | 107 | 0.0 | 1.6 | 0.00 | 0.00 | 0.00 | 98 | 1016.1 |
| 20260831085056 | 24 | 107 | 0.0 | 1.6 | 0.00 | 0.00 | 0.00 | 98 | 1016.1 |
| 20260831084313 | 24 | 0 | 0.0 | 0.0 | 0.00 | 0.00 | 0.00 | 98 | 1016.1 |
| 20260831084055 | 24 | 0 | 0.0 | 0.0 | 0.00 | 0.00 | 0.00 | 98 | 1016.1 |
| 20260831083754 | 24 | 0 | 0.0 | 0.0 | 0.00 | 0.00 | 0.00 | 98 | 1016.1 |
| 20260831083525 | 24 | 0 | 0.0 | 0.0 | 0.00 | 0.00 | 0.00 | 98 | 1016.1 |
| 20260831082131 | 25 | 100 | 3.2 | 4.8 | 0.00 | 0.00 | 0.00 | 98 | 1016.0 |
| 20260831081925 | 25 | 100 | 3.2 | 4.8 | 0.00 | 0.00 | 0.00 | 98 | 1016.0 |
| 20260831081355 | 25 | 96 | 3.2 | 9.7 | 0.00 | 0.00 | 0.00 | 98 | 1016.1 |
| 20260831081115 | 25 | 93 | 3.2 | 9.7 | 0.00 | 0.00 | 0.00 | 98 | 1016.0 |
| 20260831080855 | 25 | 93 | 3.2 | 9.7 | 0.00 | 0.00 | 0.00 | 98 | 1016.0 |
| 20260831080325 | 25 | 95 | 3.2 | 9.7 | 0.00 | 0.00 | 0.00 | 98 | 1016.1 |
| 20260831080039 | 25 | 95 | 4.8 | 9.7 | 0.00 | 0.00 | 0.00 | 97 | 1016.1 |
| 20260831075825 | 25 | 95 | 4.8 | 9.7 | 0.00 | 0.00 | 0.00 | 97 | 1016.1 |
| 20260831075255 | 25 | 94 | 3.2 | 6.4 | 0.00 | 0.00 | 0.00 | 97 | 1016.1 |
| 20260831074725 | 25 | 93 | 3.2 | 6.4 | 0.00 | 0.00 | 0.00 | 97 | 1016.2 |
| 20260831074401 | 25 | 89 | 3.2 | 6.4 | 0.00 | 0.00 | 0.00 | 97 | 1016.3 |
| 20260831074225 | 25 | 89 | 3.2 | 6.4 | 0.00 | 0.00 | 0.00 | 97 | 1016.3 |
| 20260831073655 | 25 | 96 | 4.8 | 6.4 | 0.00 | 0.00 | 0.00 | 97 | 1016.4 |
| 20260831073325 | 25 | 99 | 4.8 | 6.4 | 0.00 | 0.00 | 0.00 | 96 | 1016.4 |
| 20260831073155 | 25 | 99 | 4.8 | 6.4 | 0.00 | 0.00 | 0.00 | 96 | 1016.4 |
| 20260831072306 | 25 | 96 | 4.8 | 9.7 | 0.00 | 0.00 | 0.00 | 97 | 1016.4 |
| 20260831072126 | 25 | 96 | 4.8 | 9.7 | 0.00 | 0.00 | 0.00 | 97 | 1016.4 |
| 20260831071745 | 25 | 93 | 4.8 | 9.7 | 0.00 | 0.00 | 0.00 | 96 | 1016.5 |
| 20260831071555 | 25 | 93 | 4.8 | 9.7 | 0.00 | 0.00 | 0.00 | 96 | 1016.5 |
| 20260831071319 | 25 | 95 | 6.4 | 11.3 | 0.00 | 0.00 | 0.00 | 96 | 1016.4 |
| 20260831071055 | 25 | 95 | 6.4 | 11.3 | 0.00 | 0.00 | 0.00 | 96 | 1016.4 |
| 20260831070529 | 25 | 94 | 6.4 | 11.3 | 0.00 | 0.00 | 0.00 | 97 | 1016.4 |
| 20260831070025 | 25 | 90 | 4.8 | 11.3 | 0.00 | 0.00 | 0.00 | 97 | 1016.5 |
| 20260831065455 | 25 | 86 | 3.2 | 11.3 | 0.00 | 0.00 | 0.00 | 97 | 1016.5 |
| 20260831064455 | 25 | 83 | 1.6 | 4.8 | 0.00 | 0.00 | 0.00 | 97 | 1016.5 |
| 20260831062855 | 25 | 80 | 1.6 | 3.2 | 0.00 | 0.00 | 0.00 | 97 | 1016.6 |
| 20260831062355 | 25 | 84 | 1.6 | 3.2 | 0.00 | 0.00 | 0.00 | 97 | 1016.6 |
| 20260831061855 | 25 | 92 | 1.6 | 4.8 | 0.00 | 0.00 | 0.00 | 97 | 1016.6 |
| 20260831061355 | 25 | 90 | 1.6 | 4.8 | 0.00 | 0.00 | 0.00 | 97 | 1016.7 |
| 20260831060325 | 25 | 89 | 3.2 | 6.4 | 0.00 | 0.00 | 0.00 | 97 | 1016.8 |
| 20260831055755 | 25 | 94 | 3.2 | 6.4 | 0.00 | 0.00 | 0.00 | 97 | 1016.9 |
| 20260831055225 | 25 | 98 | 4.8 | 6.4 | 0.00 | 0.00 | 0.00 | 97 | 1016.8 |
| 20260831054725 | 25 | 100 | 4.8 | 9.7 | 0.00 | 0.00 | 0.00 | 97 | 1016.9 |
| 20260831053126 | 25 | 100 | 3.2 | 6.4 | 0.00 | 0.00 | 0.00 | 97 | 1017.2 |
| 20260831052555 | 25 | 101 | 3.2 | 4.8 | 0.00 | 0.00 | 0.00 | 97 | 1017.3 |
| 20260831052025 | 25 | 95 | 3.2 | 6.4 | 0.00 | 0.00 | 0.00 | 97 | 1017.3 |
| 20260831051526 | 25 | 92 | 3.2 | 9.7 | 0.00 | 0.00 | 0.00 | 97 | 1017.3 |
| 20260831051025 | 25 | 98 | 4.8 | 9.7 | 0.00 | 0.00 | 0.00 | 97 | 1017.4 |
| 20260831045925 | 25 | 102 | 4.8 | 9.7 | 0.00 | 0.00 | 0.00 | 96 | 1017.4 |
| 20260831045355 | 25 | 99 | 4.8 | 9.7 | 0.00 | 0.00 | 0.00 | 96 | 1017.4 |
| 20260831044855 | 25 | 94 | 4.8 | 9.7 | 0.00 | 0.00 | 0.00 | 96 | 1017.4 |
| 20260831044355 | 25 | 95 | 4.8 | 9.7 | 0.00 | 0.00 | 0.00 | 96 | 1017.4 |
| 20260831043825 | 25 | 96 | 3.2 | 9.7 | 0.00 | 0.00 | 0.00 | 96 | 1017.4 |
| 20260831043325 | 25 | 96 | 3.2 | 6.4 | 0.00 | 0.00 | 0.00 | 96 | 1017.4 |
| 20260831042825 | 25 | 98 | 1.6 | 6.4 | 0.00 | 0.00 | 0.00 | 96 | 1017.6 |
| 20260831041755 | 25 | 91 | 1.6 | 3.2 | 0.00 | 0.00 | 0.00 | 95 | 1017.5 |
| 20260831041255 | 25 | 100 | 1.6 | 4.8 | 0.00 | 0.00 | 0.00 | 95 | 1017.6 |
| 20260831040725 | 25 | 103 | 1.6 | 4.8 | 0.00 | 0.00 | 0.00 | 95 | 1017.6 |
| 20260831040155 | 25 | 83 | 0.0 | 1.6 | 0.00 | 0.00 | 0.00 | 96 | 1017.6 |
| 20260831035655 | 25 | 83 | 1.6 | 3.2 | 0.00 | 0.00 | 0.00 | 96 | 1017.6 |
| 20260831034555 | 25 | 99 | 1.6 | 6.4 | 0.00 | 0.00 | 0.00 | 96 | 1017.4 |
| 20260831034025 | 25 | 98 | 1.6 | 9.7 | 0.00 | 0.00 | 0.00 | 96 | 1017.6 |
| 20260831033455 | 25 | 87 | 1.6 | 9.7 | 0.00 | 0.00 | 0.00 | 96 | 1017.7 |
| 20260831031855 | 25 | 222 | 0.0 | 1.6 | 0.00 | 0.00 | 0.00 | 96 | 1017.6 |
| 20260831031325 | 25 | 222 | 0.0 | 1.6 | 0.00 | 0.00 | 0.00 | 95 | 1017.7 |
| 20260831030825 | 25 | 0 | 0.0 | 0.0 | 0.00 | 0.00 | 0.00 | 95 | 1017.7 |
| 20260831030325 | 25 | 0 | 0.0 | 0.0 | 0.00 | 0.00 | 0.00 | 95 | 1017.6 |
| 20260831025755 | 25 | 222 | 0.0 | 1.6 | 0.00 | 0.00 | 0.00 | 95 | 1017.5 |
| 20260831024754 | 25 | 222 | 0.0 | 1.6 | 0.00 | 0.00 | 0.00 | 95 | 1017.7 |
| 20260831024224 | 25 | 0 | 0.0 | 0.0 | 0.00 | 0.00 | 0.00 | 95 | 1017.6 |
| 20260831023655 | 25 | 0 | 0.0 | 0.0 | 0.00 | 0.00 | 0.00 | 95 | 1017.7 |
| 20260831023637 | 25 | 0 | 0.0 | 0.0 | 0.00 | 0.00 | 0.00 | 95 | 1017.7 |
| 20260831023155 | 25 | 0 | 0.0 | 0.0 | 0.00 | 0.00 | 0.00 | 95 | 1017.7 |
| 20260831021719 | 25 | 222 | 0.0 | 1.6 | 0.00 | 0.00 | 0.00 | 94 | 1017.8 |
| 20260831021555 | 25 | 222 | 0.0 | 1.6 | 0.00 | 0.00 | 0.00 | 94 | 1017.8 |
| 20260831021024 | 25 | 222 | 0.0 | 1.6 | 0.00 | 0.00 | 0.00 | 94 | 1017.8 |
| 20260831020455 | 25 | 0 | 0.0 | 1.6 | 0.00 | 0.00 | 0.00 | 94 | 1017.8 |
| 20260831015955 | 25 | 222 | 0.0 | 1.6 | 0.00 | 0.00 | 0.00 | 93 | 1018.0 |
| 20260831015424 | 25 | 222 | 0.0 | 1.6 | 0.00 | 0.00 | 0.00 | 93 | 1018.0 |
| 20260831015140 | 25 | 222 | 0.0 | 1.6 | 0.00 | 0.00 | 0.00 | 93 | 1017.9 |
| 20260831014924 | 25 | 222 | 0.0 | 1.6 | 0.00 | 0.00 | 0.00 | 93 | 1017.9 |
| 20260831014711 | 25 | 222 | 0.0 | 1.6 | 0.00 | 0.00 | 0.00 | 92 | 1018.0 |
| 20260831014425 | 25 | 222 | 0.0 | 1.6 | 0.00 | 0.00 | 0.00 | 92 | 1018.0 |
| 20260831013925 | 25 | 222 | 0.0 | 1.6 | 0.00 | 0.00 | 0.00 | 92 | 1017.9 |
| 20260831013634 | 25 | 222 | 1.6 | 3.2 | 0.00 | 0.00 | 0.00 | 92 | 1017.9 |
| 20260831013355 | 25 | 222 | 1.6 | 3.2 | 0.00 | 0.00 | 0.00 | 92 | 1017.9 |
| 20260831012825 | 25 | 222 | 0.0 | 3.2 | 0.00 | 0.00 | 0.00 | 92 | 1017.9 |
| 20260831012254 | 25 | 222 | 0.0 | 1.6 | 0.00 | 0.00 | 0.00 | 91 | 1017.9 |
| 20260831011754 | 26 | 222 | 1.6 | 1.6 | 0.00 | 0.00 | 0.00 | 92 | 1018.0 |
| 20260831010725 | 26 | 222 | 0.0 | 1.6 | 0.00 | 0.00 | 0.00 | 93 | 1017.9 |
| 20260831010530 | 26 | 222 | 0.0 | 1.6 | 0.00 | 0.00 | 0.00 | 93 | 1017.8 |
| 20260831010225 | 26 | 222 | 0.0 | 1.6 | 0.00 | 0.00 | 0.00 | 93 | 1017.8 |
| 20260831010002 | 26 | 222 | 0.0 | 1.6 | 0.00 | 0.00 | 0.00 | 92 | 1017.7 |
| 20260831005724 | 26 | 222 | 0.0 | 1.6 | 0.00 | 0.00 | 0.00 | 92 | 1017.7 |
| 20260831005155 | 26 | 222 | 0.0 | 1.6 | 0.00 | 0.00 | 0.00 | 92 | 1017.7 |
| 20260831004953 | 26 | 222 | 0.0 | 1.6 | 0.00 | 0.00 | 0.00 | 92 | 1017.7 |
| 20260831004655 | 26 | 222 | 0.0 | 1.6 | 0.00 | 0.00 | 0.00 | 92 | 1017.7 |
| 20260831002555 | 26 | 222 | 0.0 | 1.6 | 0.00 | 0.00 | 0.00 | 91 | 1017.4 |
| 20260831002025 | 26 | 222 | 0.0 | 1.6 | 0.00 | 0.00 | 0.00 | 91 | 1017.4 |
| 20260831001911 | 26 | 222 | 0.0 | 1.6 | 0.00 | 0.00 | 0.00 | 90 | 1017.3 |
| 20260831001524 | 26 | 222 | 0.0 | 1.6 | 0.00 | 0.00 | 0.00 | 90 | 1017.3 |
| 20260831001025 | 26 | 222 | 0.0 | 1.6 | 0.00 | 0.03 | 0.00 | 90 | 1017.2 |
| 20260831000926 | 26 | 222 | 0.0 | 1.6 | 0.00 | 0.03 | 0.00 | 89 | 1017.1 |
| 20260831000525 | 26 | 222 | 0.0 | 1.6 | 0.00 | 0.03 | 0.00 | 89 | 1017.1 |
| 20260831000313 | 26 | 222 | 0.0 | 1.6 | 0.00 | 0.03 | 0.00 | 89 | 1017.0 |
| 20260831000024 | 26 | 222 | 0.0 | 1.6 | 0.00 | 0.03 | 0.00 | 89 | 1017.0 |
| 20260830235525 | 26 | 222 | 0.0 | 1.6 | 0.00 | 0.03 | 0.00 | 89 | 1017.0 |
| 20260830234231 | 26 | 222 | 0.0 | 1.6 | 0.00 | 0.05 | 0.00 | 89 | 1016.7 |
| 20260830233955 | 26 | 222 | 0.0 | 1.6 | 0.00 | 0.05 | 0.00 | 89 | 1016.7 |
| 20260830233425 | 26 | 222 | 0.0 | 1.6 | 0.00 | 0.08 | 0.00 | 88 | 1016.7 |
| 20260830232926 | 26 | 222 | 0.0 | 1.6 | 0.00 | 0.08 | 0.00 | 88 | 1016.8 |
| 20260830232355 | 26 | 222 | 0.0 | 1.6 | 0.00 | 0.08 | 0.00 | 89 | 1016.8 |
| 20260830232138 | 26 | 222 | 0.0 | 1.6 | 0.00 | 0.10 | 0.00 | 89 | 1016.8 |
| 20260830231825 | 26 | 222 | 0.0 | 1.6 | 0.00 | 0.10 | 0.00 | 89 | 1016.8 |
| 20260830230225 | 26 | 0 | 0.0 | 3.2 | 0.00 | 0.10 | 0.00 | 89 | 1016.8 |
| 20260830223024 | 26 | 237 | 3.2 | 6.4 | 0.00 | 0.20 | 0.00 | 88 | 1016.8 |
| 20260830222524 | 27 | 226 | 1.6 | 6.4 | 0.00 | 0.23 | 0.00 | 88 | 1016.8 |
| 20260830222024 | 27 | 188 | 1.6 | 4.8 | 0.00 | 0.25 | 0.00 | 88 | 1016.9 |
| 20260830221525 | 27 | 196 | 1.6 | 4.8 | 0.00 | 0.30 | 0.00 | 88 | 1016.8 |
| 20260830221024 | 27 | 184 | 1.6 | 4.8 | 0.00 | 0.30 | 0.00 | 88 | 1016.7 |
| 20260830220144 | 27 | 168 | 1.6 | 8.0 | 0.00 | 0.33 | 0.00 | 87 | 1016.5 |
| 20260830215924 | 27 | 168 | 1.6 | 8.0 | 0.00 | 0.33 | 0.00 | 87 | 1016.5 |
| 20260830215712 | 27 | 176 | 1.6 | 8.0 | 0.00 | 0.33 | 0.00 | 87 | 1016.6 |
| 20260830215424 | 27 | 176 | 1.6 | 8.0 | 0.00 | 0.33 | 0.00 | 87 | 1016.6 |
| 20260830215146 | 27 | 177 | 3.2 | 8.0 | 0.00 | 0.33 | 0.00 | 87 | 1016.6 |
| 20260830214924 | 27 | 177 | 3.2 | 8.0 | 0.00 | 0.33 | 0.00 | 87 | 1016.6 |
| 20260830214713 | 27 | 194 | 3.2 | 8.0 | 0.00 | 0.33 | 0.00 | 87 | 1016.6 |
| 20260830214426 | 27 | 194 | 3.2 | 8.0 | 0.00 | 0.33 | 0.00 | 87 | 1016.6 |
| 20260830213354 | 27 | 187 | 4.8 | 17.7 | 0.00 | 0.36 | 0.00 | 84 | 1016.5 |
| 20260830213130 | 27 | 190 | 4.8 | 17.7 | 0.00 | 0.36 | 0.00 | 84 | 1016.5 |
| 20260830212855 | 27 | 190 | 4.8 | 17.7 | 0.00 | 0.36 | 0.00 | 84 | 1016.5 |
| 20260830212324 | 28 | 191 | 4.8 | 11.3 | 0.00 | 0.36 | 0.00 | 82 | 1016.6 |
| 20260830211824 | 28 | 183 | 4.8 | 16.1 | 0.00 | 0.36 | 0.00 | 82 | 1016.5 |
| 20260830210755 | 28 | 126 | 4.8 | 14.5 | 0.00 | 0.53 | 0.00 | 82 | 1016.5 |
| 20260830210502 | 28 | 109 | 4.8 | 14.5 | 0.00 | 0.64 | 0.00 | 81 | 1016.7 |
| 20260830210225 | 28 | 109 | 4.8 | 14.5 | 0.00 | 0.64 | 0.00 | 81 | 1016.7 |
| 20260830205724 | 28 | 104 | 6.4 | 14.5 | 0.00 | 0.76 | 0.00 | 83 | 1016.7 |
| 20260830205225 | 28 | 99 | 8.0 | 16.1 | 0.00 | 0.81 | 0.00 | 84 | 1016.8 |
| 20260830204724 | 28 | 114 | 4.8 | 16.1 | 0.00 | 0.84 | 0.00 | 83 | 1016.9 |
| 20260830203655 | 28 | 103 | 11.3 | 22.5 | 0.00 | 0.84 | 0.00 | 86 | 1016.7 |
| 20260830203154 | 28 | 102 | 12.9 | 22.5 | 0.00 | 0.84 | 0.00 | 85 | 1016.5 |
| 20260830202654 | 29 | 103 | 14.5 | 25.7 | 0.00 | 0.84 | 0.00 | 86 | 1016.6 |
| 20260830201554 | 29 | 101 | 16.1 | 27.4 | 0.00 | 0.84 | 0.00 | 86 | 1016.5 |
| 20260830201231 | 29 | 100 | 16.1 | 24.1 | 0.00 | 0.84 | 0.00 | 87 | 1016.5 |
| 20260830201055 | 29 | 100 | 16.1 | 24.1 | 0.00 | 0.84 | 0.00 | 87 | 1016.5 |